Wind_Speed
7 7 7 8 7 7 7 7 8 9 9 10 11 10 11 12 12 11 10 11 11 11 12 12 12 13 13 13 11 11 10 9 9 9 8 7 7 7 6 7 6 6 6
7 8 8 8 8 7 7 8 9 10 10 11 11 11 11 12 12 11 11 11 12 12 12 12 13 13 13 12 11 10 10 9 9 8 8 7 7 7 7 7 6 6 6
8 8 8 8 7 7 8 8 9 9 10 11 11 11 11 11 12 13 12 11 12 12 11 11 12 12 12 11 10 10 10 9 9 8 8 8 7 7 7 7 7 6 6
9 9 9 8 8 7 7 8 8 9 10 10 11 11 11 12 13 13 12 12 12 12 12 12 12 12 11 11 10 11 10 9 8 8 8 8 7 7 7 7 7 6 6
9 9 9 8 8 8 7 7 8 9 9 10 10 10 11 11 12 12 12 13 12 12 12 11 12 11 11 11 11 10 10 9 9 8 8 8 8 7 7 7 6 6 5
10 10 10 9 8 8 8 7 7 9 9 10 10 10 11 11 12 13 13 12 12 12 12 12 12 11 11 11 10 10 10 9 9 8 8 8 7 7 7 6 6 5 5
10 10 10 10 8 8 8 8 8 8 10 10 10 10 11 12 13 13 14 13 12 12 12 12 12 11 11 11 11 11 10 9 8 7 7 7 6 6 6 6 6 5 4
10 10 10 10 10 9 8 9 9 9 10 11 11 11 12 13 12 12 12 12 12 12 12 12 13 12 11 10 10 9 9 8 7 6 6 6 6 6 5 5 4 4 4
10 10 10 10 9 9 9 10 10 10 11 11 11 11 11 11 11 11 12 11 11 11 11 11 12 11 10 9 8 8 8 7 7 5 5 5 5 4 4 4 3 3 3
10 10 10 10 9 9 9 10 10 10 10 10 10 10 10 10 10 10 11 11 11 11 11 10 10 10 9 8 8 7 6 5 5 4 4 4 4 4 4 3 2 2 2
10 10 10 9 9 10 9 9 9 9 9 9 10 10 10 10 10 10 10 10 10 10 10 9 9 8 8 7 7 6 5 4 4 4 4 4 3 3 2 2 2 2 2
11 11 10 10 9 10 9 9 9 8 9 9 10 10 10 10 10 10 9 9 9 8 8 8 7 7 6 6 5 5 4 3 3 3 3 3 2 2 1 2 2 1 1
11 11 10 10 9 9 9 9 9 8 8 8 9 9 9 9 8 8 8 8 7 7 7 6 6 6 5 5 4 4 4 4 3 2 2 2 1 0 1 1 2 2 2
11 10 11 10 10 9 9 9 9 8 8 8 8 8 7 8 7 7 7 6 6 5 5 5 4 4 4 4 4 3 3 3 2 1 1 1 1 2 2 3 3 3 4
11 10 10 10 9 9 9 9 8 8 7 7 6 6 7 7 6 7 7 5 5 5 4 3 3 3 3 3 2 2 1 1 1 1 1 2 2 3 3 4 4 5 5
10 10 10 9 9 9 8 8 8 7 7 6 5 5 5 5 5 6 6 5 5 4 3 3 2 2 2 1 1 1 1 1 1 2 2 3 4 5 5 5 6 6 6
10 10 9 8 8 8 8 8 7 7 6 5 5 4 4 5 5 5 5 5 5 4 3 3 2 2 2 1 2 2 3 3 4 4 4 4 5 6 7 7 7 7 7
9 9 8 8 7 7 7 6 6 6 5 5 4 4 4 4 4 4 4 4 4 4 4 3 3 3 3 3 4 4 4 5 6 6 6 6 7 7 8 8 8 9 9
9 9 8 7 7 6 6 5 5 5 5 4 4 3 3 3 3 3 3 3 4 4 4 4 4 4 4 5 5 5 6 7 8 8 7 8 8 9 9 9 9 10 10
10 9 8 7 6 6 5 5 5 5 5 4 4 3 3 3 3 3 3 3 4 5 5 5 5 5 6 6 6 6 6 7 8 8 8 9 9 9 10 11 11 11 12
10 10 9 7 7 6 6 5 5 5 5 4 4 4 3 3 3 4 4 4 5 6 6 6 6 6 7 7 7 8 8 8 9 9 9 9 10 10 11 11 12 13 13
10 10 10 8 8 7 7 5 5 5 5 5 5 4 3 3 4 4 5 6 6 7 8 8 8 8 8 8 8 9 9 10 10 10 9 10 11 12 13 13 13 14 14
11 10 9 9 8 8 8 7 7 6 5 5 5 4 4 4 4 5 5 6 7 8 8 9 10 9 9 9 9 10 10 10 10 11 11 11 12 13 13 13 14 13 14
11 10 9 9 8 8 7 7 7 7 7 6 6 6 5 4 5 6 6 7 7 8 9 9 10 10 9 9 10 10 10 10 11 11 12 12 13 13 13 12 13 13 14
10 10 9 9 8 8 8 7 7 7 7 7 6 6 6 6 6 6 6 7 8 8 9 9 10 10 10 10 10 10 10 10 10 11 12 12 12 12 12 12 13 13 14
10 10 9 9 9 8 8 8 8 8 8 8 7 7 6 6 7 7 8 8 9 9 9 9 10 10 10 10 9 9 9 9 10 11 12 12 12 12 12 12 13 13 13
Wind_Direction
52 54 61 71 73 76 77 83 84 87 95 103 108 114 117 116 117 119 119 121 119 122 121 119 117 125 129 130 131 132 131 131 128 125 120 118 118 115 112 113 111 102 100
56 61 67 72 72 78 83 85 84 87 94 100 104 113 118 117 117 116 115 117 115 116 116 114 122 123 125 126 126 129 130 131 129 125 122 122 124 122 118 113 106 103 99
58 61 64 67 70 78 84 84 85 90 96 98 99 105 114 115 115 114 114 114 109 108 110 115 121 120 122 124 122 125 127 127 127 125 125 127 127 120 109 103 103 100 94
59 60 64 67 69 71 78 83 87 92 97 101 100 99 107 114 113 114 114 111 107 107 108 112 115 120 121 123 119 120 123 125 127 126 129 131 129 117 106 101 101 97 91
60 59 65 66 68 69 77 82 84 91 98 102 103 104 108 110 111 112 110 108 107 106 105 110 116 120 122 124 122 118 118 120 123 128 127 124 120 112 108 105 102 95 89
62 62 65 70 70 69 72 78 84 89 97 100 103 104 105 107 108 107 106 107 108 105 102 107 113 118 121 120 120 119 117 116 118 122 119 115 112 109 107 102 94 88 87
64 63 66 72 73 70 73 76 82 89 96 98 102 104 107 106 105 105 106 107 107 105 102 104 109 112 115 115 113 114 112 108 108 111 111 112 110 108 103 98 91 85 82
67 67 68 71 73 76 78 78 82 90 96 100 102 101 103 105 106 106 104 104 105 107 106 106 107 109 111 110 111 112 111 107 104 105 107 110 110 104 102 99 92 87 77
67 67 67 71 74 80 81 81 85 90 91 95 95 97 102 103 107 108 105 105 104 103 103 106 108 109 110 111 112 115 114 109 109 103 101 103 100 100 100 93 92 81 75
63 67 67 69 76 81 84 83 86 86 87 88 91 96 98 99 105 109 108 108 107 104 103 103 107 108 108 111 114 116 116 116 117 109 101 100 99 97 94 84 75 67 53
61 65 67 66 72 80 83 83 86 87 88 89 90 95 97 99 101 107 109 108 106 105 103 100 103 106 106 106 110 110 113 111 106 108 109 105 101 97 90 74 56 46 32
59 62 65 67 70 76 80 85 89 93 93 92 88 89 89 91 91 95 102 104 103 102 101 99 99 100 101 102 105 105 105 105 106 109 108 105 95 88 73 41 20 8 349
57 61 63 64 68 71 73 80 88 90 89 88 90 91 91 88 86 88 95 99 99 99 100 97 93 94 93 94 99 104 103 103 101 106 115 116 85 351 335 329 328 321 308
55 60 63 63 64 67 69 72 76 81 84 86 86 86 88 90 84 85 92 96 100 101 98 96 87 87 90 92 100 112 110 102 95 77 96 271 294 299 295 296 301 302 302
56 59 62 61 62 64 65 66 69 74 77 81 84 85 79 85 82 78 82 79 84 87 86 86 89 98 96 97 97 85 82 64 78 349 337 303 292 293 291 289 295 298 295
56 58 59 60 57 60 60 59 60 67 72 72 72 72 69 67 67 66 71 64 68 70 74 75 68 66 70 64 53 27 344 329 329 314 310 306 304 295 295 295 298 296 296
54 54 54 58 56 53 51 52 50 55 60 61 62 61 57 51 52 63 65 61 62 58 58 46 29 12 347 336 334 326 314 299 291 293 297 303 301 298 293 290 290 292 293
53 51 48 51 50 47 44 42 39 43 51 51 49 47 43 39 41 49 52 47 41 36 31 22 6 347 330 318 312 310 307 299 291 289 290 297 298 294 291 287 288 286 288
47 45 43 44 44 42 41 37 34 33 35 37 36 34 32 31 33 35 33 26 22 13 4 351 339 326 320 317 311 309 303 296 295 293 293 293 293 291 288 287 283 283 285
40 39 38 38 32 27 29 31 30 25 20 19 21 17 13 14 15 6 3 356 354 352 347 339 328 319 317 317 317 313 311 304 299 296 297 295 295 291 286 285 284 284 285
36 33 32 31 29 28 26 26 25 20 14 7 2 5 1 352 349 344 341 339 336 336 333 329 324 321 318 316 308 306 307 305 303 299 298 296 296 293 287 287 286 283 283
29 29 28 32 32 26 21 23 15 8 9 5 1 0 357 343 337 337 332 330 330 329 327 326 318 311 309 309 305 303 303 302 302 302 299 294 294 293 291 289 287 284 284
27 28 29 31 27 24 22 22 18 12 10 4 2 357 354 351 344 339 334 333 330 327 329 331 329 318 313 310 304 301 300 301 301 302 301 297 295 294 292 290 290 291 291
25 26 27 28 25 24 25 23 17 14 14 9 6 5 1 351 344 339 337 333 332 331 331 332 334 329 321 312 305 302 301 302 302 304 305 304 301 299 296 293 294 292 290
23 23 24 24 23 21 21 19 17 12 11 9 5 2 3 357 349 345 343 336 330 330 331 331 333 330 324 317 309 304 305 307 307 309 311 311 309 304 301 298 300 299 297
20 22 21 19 18 18 18 17 16 13 9 11 4 357 353 349 345 340 338 334 330 327 328 330 332 328 325 323 319 315 312 313 312 311 309 309 310 309 308 306 306 305 302
Height
5866 5864 5863 5863 5863 5864 5863 5862 5861 5859 5859 5860 5861 5861 5861 5862 5863 5864 5864 5865 5865 5866 5866 5867 5868 5868 5870 5872 5875 5876 5877 5879 5880 5881 5882 5883 5884 5885 5886 5887 5888 5888 5889
5867 5866 5866 5865 5865 5865 5865 5864 5864 5863 5862 5862 5863 5863 5864 5864 5865 5865 5866 5867 5867 5867 5868 5869 5870 5871 5872 5874 5876 5877 5879 5880 5881 5882 5883 5884 5885 5886 5887 5888 5889 5889 5890
5869 5868 5868 5868 5868 5867 5867 5867 5866 5865 5865 5865 5866 5866 5865 5866 5867 5867 5868 5869 5869 5870 5870 5870 5871 5873 5874 5876 5877 5878 5880 5881 5882 5883 5884 5885 5887 5888 5888 5889 5890 5890 5891
5871 5870 5870 5870 5869 5869 5869 5869 5868 5868 5867 5867 5868 5868 5868 5868 5869 5869 5870 5871 5871 5872 5872 5872 5873 5875 5876 5877 5879 5880 5881 5883 5884 5885 5886 5887 5888 5889 5889 5890 5891 5892 5892
5873 5873 5872 5872 5871 5871 5871 5870 5870 5870 5870 5870 5870 5870 5871 5871 5871 5872 5872 5873 5873 5874 5874 5873 5874 5875 5877 5879 5880 5882 5883 5884 5885 5887 5888 5889 5889 5890 5891 5891 5892 5893 5893
5875 5875 5874 5874 5873 5873 5873 5872 5872 5872 5872 5872 5872 5872 5872 5873 5873 5874 5875 5875 5876 5876 5875 5875 5875 5877 5878 5880 5882 5883 5885 5886 5887 5888 5889 5890 5890 5891 5892 5893 5893 5894 5894
5877 5877 5876 5875 5875 5875 5875 5875 5874 5874 5874 5874 5874 5874 5875 5875 5876 5876 5877 5878 5878 5878 5877 5877 5877 5878 5880 5882 5883 5885 5886 5887 5889 5890 5890 5891 5892 5892 5893 5894 5894 5895 5895
5880 5879 5878 5877 5877 5877 5877 5877 5876 5876 5877 5877 5877 5877 5878 5878 5879 5879 5879 5880 5880 5880 5880 5880 5880 5881 5882 5884 5885 5887 5888 5889 5890 5891 5891 5891 5892 5894 5894 5895 5895 5895 5896
5882 5881 5881 5880 5880 5879 5879 5879 5879 5879 5879 5880 5880 5880 5880 5881 5881 5882 5882 5882 5882 5883 5883 5883 5883 5884 5885 5886 5888 5889 5890 5891 5892 5892 5893 5893 5894 5895 5895 5895 5896 5896 5897
5884 5883 5883 5882 5882 5881 5881 5882 5882 5882 5882 5882 5882 5882 5883 5883 5884 5884 5884 5884 5885 5885 5886 5886 5887 5887 5888 5888 5889 5890 5891 5892 5893 5894 5894 5894 5895 5895 5896 5896 5897 5897 5897
5886 5885 5885 5884 5884 5884 5884 5884 5884 5884 5884 5884 5885 5885 5885 5886 5886 5886 5886 5887 5887 5887 5888 5888 5889 5890 5890 5890 5891 5892 5892 5893 5894 5894 5895 5895 5896 5896 5896 5897 5897 5897 5897
5889 5888 5887 5887 5886 5887 5887 5886 5886 5887 5887 5887 5887 5888 5888 5888 5888 5889 5889 5889 5889 5890 5890 5890 5891 5891 5892 5892 5892 5893 5893 5894 5895 5895 5895 5896 5896 5897 5897 5897 5897 5897 5897
5891 5890 5890 5889 5889 5889 5889 5889 5889 5889 5889 5889 5890 5890 5890 5890 5890 5890 5891 5891 5891 5892 5892 5892 5892 5893 5893 5893 5894 5894 5894 5895 5896 5896 5896 5896 5897 5897 5897 5897 5897 5897 5897
5893 5892 5892 5892 5891 5891 5891 5891 5891 5891 5891 5892 5892 5892 5891 5892 5892 5892 5892 5893 5893 5893 5894 5894 5894 5894 5895 5894 5895 5895 5895 5895 5896 5896 5896 5896 5897 5897 5897 5897 5897 5897 5897
5895 5895 5895 5894 5894 5894 5894 5894 5893 5894 5894 5894 5894 5893 5893 5894 5893 5894 5894 5894 5895 5895 5895 5895 5895 5896 5896 5896 5896 5896 5896 5896 5897 5897 5896 5896 5896 5896 5896 5896 5896 5896 5896
5898 5897 5897 5897 5896 5896 5896 5896 5896 5896 5895 5895 5895 5895 5895 5895 5895 5896 5896 5895 5896 5896 5896 5896 5896 5896 5896 5896 5896 5896 5896 5896 5896 5896 5896 5896 5896 5896 5896 5896 5895 5895 5895
5900 5900 5899 5899 5899 5898 5898 5898 5898 5897 5897 5897 5897 5897 5897 5897 5897 5897 5897 5897 5897 5897 5897 5897 5897 5897 5897 5896 5896 5896 5896 5896 5896 5896 5895 5895 5895 5895 5895 5895 5894 5894 5894
5903 5902 5901 5901 5901 5900 5900 5899 5899 5899 5899 5899 5898 5898 5898 5898 5898 5898 5898 5898 5898 5898 5897 5897 5897 5897 5896 5896 5896 5896 5895 5895 5895 5895 5894 5894 5894 5893 5893 5893 5893 5892 5892
5904 5904 5903 5903 5902 5902 5901 5901 5901 5900 5900 5900 5899 5899 5899 5899 5899 5899 5899 5899 5899 5898 5898 5898 5897 5897 5896 5896 5895 5895 5894 5894 5894 5893 5892 5892 5892 5891 5891 5891 5891 5890 5890
5906 5905 5905 5904 5904 5903 5903 5902 5902 5902 5901 5901 5901 5900 5900 5900 5900 5899 5899 5899 5899 5899 5898 5897 5897 5896 5896 5895 5894 5894 5894 5893 5892 5892 5891 5891 5891 5890 5889 5888 5888 5888 5887
5908 5907 5906 5905 5905 5904 5904 5903 5903 5902 5902 5902 5902 5901 5901 5900 5900 5900 5899 5899 5899 5898 5898 5897 5896 5895 5895 5894 5894 5893 5893 5892 5891 5890 5890 5889 5888 5888 5886 5885 5886 5885 5884
5909 5908 5907 5906 5906 5905 5905 5904 5904 5903 5903 5902 5902 5901 5901 5900 5900 5900 5899 5899 5898 5898 5897 5896 5895 5894 5893 5893 5893 5892 5891 5891 5890 5888 5887 5887 5886 5885 5884 5884 5883 5882 5882
5911 5910 5909 5908 5907 5907 5906 5905 5905 5904 5903 5903 5902 5902 5901 5900 5900 5899 5899 5898 5898 5897 5896 5895 5894 5893 5892 5891 5891 5890 5890 5889 5888 5887 5885 5885 5884 5883 5882 5881 5880 5878 5878
5912 5911 5910 5909 5908 5908 5907 5906 5906 5905 5904 5903 5902 5902 5901 5900 5900 5899 5898 5897 5897 5896 5895 5894 5892 5891 5890 5890 5889 5888 5887 5887 5886 5885 5884 5883 5881 5880 5879 5878 5878 5876 5875
5913 5912 5911 5910 5909 5909 5908 5907 5906 5905 5904 5903 5902 5902 5901 5900 5899 5899 5898 5897 5896 5895 5894 5893 5891 5890 5889 5888 5887 5886 5885 5884 5884 5883 5882 5881 5879 5878 5877 5876 5875 5874 5873
5915 5913 5912 5911 5910 5909 5908 5908 5907 5906 5904 5903 5902 5902 5901 5900 5899 5898 5897 5896 5895 5894 5893 5892 5890 5889 5888 5886 5885 5884 5883 5882 5882 5881 5879 5878 5877 5876 5875 5874 5872 5871 5870